Weather History for KCOD - February, 2015

Change the Weather History Date:

Monday, February 2, 2015

  Actual Average Record
Temperature  
Mean Temperature 34 °F -  
Max Temperature 46 °F 36 °F 69 °F (1934)
Min Temperature 23 °F 12 °F -31 °F (1989)
Degree Days  
Heating Degree Days 30    
Moisture  
Dew Point 22 °F    
Average Humidity 48    
Maximum Humidity 86    
Minimum Humidity 32    
Precipitation  
Precipitation 0.00 in - - ()
Sea Level Pressure  
Sea Level Pressure 29.87 in    
Wind  
Wind Speed 12 mph (West)    
Max Wind Speed 23 mph    
Max Gust Speed 40 mph    
Visibility 10 miles    
Events      
Averages and records for this station are not official NWS values.
T = Trace of Precipitation, MM = Missing Value Source: NWS Daily Summary

Daily Weather History Graph

Daily Weather History Graph

Search for Another Location

Airport or City:

Trip Planner

Search our weather history database for the weather conditions in past years. The results will help you decide how hot, cold, wet, or windy it might be!

Date:

Astronomy

Feb. 02, 2015 Rise Set
Actual Time 7:33 AM MST 5:26 PM MST
Civil Twilight 7:02 AM MST 5:57 PM MST
Nautical Twilight 6:28 AM MST 6:32 PM MST
Astronomical Twilight 5:53 AM MST 7:06 PM MST
Moon 4:41 PM MST (2/2) 6:26 AM MST (2/2)
Length of Visible Light 10h 54m
Length of Day
9h 52m
Waxing Gibbous, 99% of the Moon is Illuminated
Feb 2
Waxing Gibbous
Feb 3
Full
Feb 11
Last Quarter
Feb 18
New
Feb 25
First Quarter

Hourly Weather History & Observations

Time (MST) Temp. Windchill Dew Point Humidity Pressure Visibility Wind Dir Wind Speed Gust Speed Precip Events Conditions
12:15 AM 32.0 °F 24.2 °F 21.2 °F 64% 29.87 in 10.0 mi NW 9.2 mph 24.2 mph N/A   Clear
12:35 AM 30.2 °F 21.9 °F 21.2 °F 69% 29.87 in 10.0 mi NW 9.2 mph - N/A   Clear
12:55 AM 33.8 °F 25.3 °F 24.8 °F 70% 29.86 in 10.0 mi West 11.5 mph 18.4 mph N/A   Clear
1:15 AM 35.6 °F 30.7 °F 23.0 °F 60% 29.85 in 10.0 mi WNW 5.8 mph 20.7 mph N/A   Clear
1:35 AM 33.8 °F 27.0 °F 21.2 °F 60% 29.86 in 10.0 mi NNE 8.1 mph - N/A   Clear
1:55 AM 32.0 °F 24.2 °F 24.8 °F 75% 29.86 in 10.0 mi North 9.2 mph - N/A   Partly Cloudy
2:15 AM 35.6 °F 29.9 °F 21.2 °F 56% 29.86 in 10.0 mi North 6.9 mph 19.6 mph N/A   Scattered Clouds
2:35 AM 23.0 °F 13.1 °F 10.4 °F 59% 29.87 in 10.0 mi North 9.2 mph - N/A   Scattered Clouds
2:55 AM 26.6 °F 19.1 °F 21.2 °F 80% 29.86 in 10.0 mi West 6.9 mph 23.0 mph N/A   Partly Cloudy
3:15 AM 26.6 °F 20.0 °F 17.6 °F 69% 29.87 in 10.0 mi North 5.8 mph - N/A   Mostly Cloudy
3:35 AM 37.4 °F 29.3 °F 28.4 °F 70% 29.87 in 10.0 mi WNW 12.7 mph 19.6 mph N/A   Overcast
3:55 AM 39.2 °F 30.5 °F 24.8 °F 56% 29.87 in 10.0 mi West 16.1 mph 23.0 mph N/A   Overcast
4:15 AM 26.6 °F 20.0 °F 17.6 °F 69% 29.89 in 10.0 mi NNE 5.8 mph - N/A   Overcast
4:35 AM 26.6 °F 19.1 °F 23.0 °F 86% 29.88 in 10.0 mi West 6.9 mph - N/A   Overcast
4:55 AM 37.4 °F 28.9 °F 23.0 °F 56% 29.87 in 10.0 mi West 13.8 mph - N/A   Scattered Clouds
5:15 AM 39.2 °F 32.5 °F 21.2 °F 49% 29.89 in 10.0 mi WNW 10.4 mph - N/A   Clear
5:35 AM 39.2 °F 30.5 °F 21.2 °F 49% 29.89 in 10.0 mi West 16.1 mph 24.2 mph N/A   Partly Cloudy
5:55 AM 39.2 °F 30.5 °F 21.2 °F 49% 29.89 in 10.0 mi West 16.1 mph 21.9 mph N/A   Clear
6:15 AM 41.0 °F 32.5 °F 21.2 °F 45% 29.89 in 10.0 mi WSW 17.3 mph 33.4 mph N/A   Clear
6:35 AM 41.0 °F 31.9 °F 21.2 °F 45% 29.90 in 10.0 mi WSW 19.6 mph 25.3 mph N/A   Clear
6:55 AM 41.0 °F 32.5 °F 21.2 °F 45% 29.91 in 10.0 mi WSW 17.3 mph 23.0 mph N/A   Clear
7:15 AM 41.0 °F 33.1 °F 21.2 °F 45% 29.90 in 10.0 mi WSW 15.0 mph 25.3 mph N/A   Clear
7:35 AM 41.0 °F 32.2 °F 21.2 °F 45% 29.91 in 10.0 mi WSW 18.4 mph 29.9 mph N/A   Clear
7:55 AM 39.2 °F 37.0 °F 21.2 °F 49% 29.92 in 10.0 mi NNE 3.5 mph 19.6 mph N/A   Clear
8:15 AM 33.8 °F - 17.6 °F 52% 29.93 in 10.0 mi Calm Calm - N/A   Clear
8:35 AM 42.8 °F 34.5 °F 21.2 °F 42% 29.92 in 10.0 mi West 18.4 mph 24.2 mph N/A   Clear
8:55 AM 42.8 °F 36.6 °F 21.2 °F 42% 29.92 in 10.0 mi West 11.5 mph 27.6 mph N/A   Clear
9:15 AM 42.8 °F 36.6 °F 19.4 °F 39% 29.95 in 10.0 mi WNW 11.5 mph 20.7 mph N/A   Clear
9:35 AM 42.8 °F 34.8 °F 19.4 °F 39% 29.94 in 10.0 mi West 17.3 mph 31.1 mph N/A   Clear
9:55 AM 44.6 °F 36.1 °F 19.4 °F 37% 29.95 in 10.0 mi West 21.9 mph 32.2 mph N/A   Clear
10:15 AM 44.6 °F 37.8 °F 19.4 °F 37% 29.95 in 10.0 mi West 15.0 mph 27.6 mph N/A   Clear
10:35 AM 44.6 °F 37.4 °F 17.6 °F 34% 29.95 in 10.0 mi West 16.1 mph 25.3 mph N/A   Clear
10:55 AM 44.6 °F 37.4 °F 19.4 °F 37% 29.96 in 10.0 mi West 16.1 mph 28.8 mph N/A   Clear
11:15 AM 44.6 °F 37.2 °F 19.4 °F 37% 29.96 in 10.0 mi West 17.3 mph 26.5 mph N/A   Clear
11:35 AM 46.4 °F 39.2 °F 17.6 °F 32% 29.96 in 10.0 mi WSW 18.4 mph 28.8 mph N/A   Clear
11:55 AM 46.4 °F 38.7 °F 17.6 °F 32% 29.95 in 10.0 mi West 20.7 mph 27.6 mph N/A   Clear
12:15 PM 46.4 °F 39.8 °F 17.6 °F 32% 29.94 in 10.0 mi WSW 16.1 mph 33.4 mph N/A   Clear
12:35 PM 46.4 °F 38.5 °F 17.6 °F 32% 29.92 in 10.0 mi West 21.9 mph 40.3 mph N/A   Clear
12:55 PM 46.4 °F 39.2 °F 19.4 °F 34% 29.91 in 10.0 mi West 18.4 mph 32.2 mph N/A   Clear
1:15 PM 46.4 °F 39.5 °F 19.4 °F 34% 29.92 in 10.0 mi WSW 17.3 mph 29.9 mph N/A   Clear
1:35 PM 46.4 °F 39.5 °F 19.4 °F 34% 29.90 in 10.0 mi WSW 17.3 mph 26.5 mph N/A   Clear
1:55 PM 46.4 °F 40.1 °F 19.4 °F 34% 29.88 in 10.0 mi West 15.0 mph 24.2 mph N/A   Clear
2:15 PM 46.4 °F 41.1 °F 19.4 °F 34% 29.88 in 10.0 mi West 11.5 mph 26.5 mph N/A   Clear
2:35 PM 46.4 °F 40.1 °F 19.4 °F 34% 29.87 in 10.0 mi West 15.0 mph 20.7 mph N/A   Clear
2:55 PM 46.4 °F 41.9 °F 19.4 °F 34% 29.87 in 10.0 mi WSW 9.2 mph 21.9 mph N/A   Clear
3:15 PM 46.4 °F 41.1 °F 19.4 °F 34% 29.87 in 10.0 mi West 11.5 mph 20.7 mph N/A   Clear
3:35 PM 46.4 °F 40.7 °F 17.6 °F 32% 29.87 in 10.0 mi West 12.7 mph 20.7 mph N/A   Clear
3:55 PM 46.4 °F 42.4 °F 17.6 °F 32% 29.86 in 10.0 mi WSW 8.1 mph - N/A   Clear
4:15 PM 46.4 °F 41.9 °F 17.6 °F 32% 29.86 in 10.0 mi West 9.2 mph - N/A   Clear
4:35 PM 44.6 °F 40.7 °F 17.6 °F 34% 29.86 in 10.0 mi WSW 6.9 mph - N/A   Partly Cloudy
4:55 PM 44.6 °F 38.8 °F 17.6 °F 34% 29.85 in 10.0 mi West 11.5 mph 17.3 mph N/A   Clear
5:15 PM 44.6 °F 38.4 °F 19.4 °F 37% 29.85 in 10.0 mi WSW 12.7 mph 19.6 mph N/A   Partly Cloudy
5:35 PM 42.8 °F 38.0 °F 19.4 °F 39% 29.84 in 10.0 mi SW 8.1 mph - N/A   Partly Cloudy
5:55 PM 42.8 °F 35.1 °F 19.4 °F 39% 29.83 in 10.0 mi WSW 16.1 mph 21.9 mph N/A   Clear
6:15 PM 41.0 °F 33.5 °F 23.0 °F 49% 29.84 in 10.0 mi West 13.8 mph 28.8 mph N/A   Clear
6:35 PM 41.0 °F 33.5 °F 24.8 °F 53% 29.83 in 10.0 mi WSW 13.8 mph 25.3 mph N/A   Clear
6:55 PM 41.0 °F 31.9 °F 24.8 °F 53% 29.81 in 10.0 mi WSW 19.6 mph 26.5 mph N/A   Clear
7:15 PM 41.0 °F 33.5 °F 24.8 °F 53% 29.81 in 10.0 mi West 13.8 mph 23.0 mph N/A   Clear
7:35 PM 42.8 °F 35.8 °F 24.8 °F 49% 29.80 in 10.0 mi WSW 13.8 mph 23.0 mph N/A   Clear
7:55 PM 39.2 °F 32.0 °F 24.8 °F 56% 29.80 in 10.0 mi South 11.5 mph 23.0 mph N/A   Clear
8:15 PM 42.8 °F 36.6 °F 24.8 °F 49% 29.79 in 10.0 mi WSW 11.5 mph 18.4 mph N/A   Clear
8:35 PM 42.8 °F 37.5 °F 26.6 °F 53% 29.80 in 10.0 mi WSW 9.2 mph 18.4 mph N/A   Mostly Cloudy
8:55 PM 42.8 °F 35.1 °F 26.6 °F 53% 29.79 in 10.0 mi SW 16.1 mph 21.9 mph N/A   Mostly Cloudy
9:15 PM 42.8 °F 36.6 °F 28.4 °F 57% 29.77 in 10.0 mi WSW 11.5 mph 20.7 mph N/A   Mostly Cloudy
9:35 PM 44.6 °F 37.8 °F 26.6 °F 49% 29.78 in 10.0 mi WSW 15.0 mph 27.6 mph N/A   Partly Cloudy
9:55 PM 44.6 °F 38.1 °F 28.4 °F 53% 29.77 in 10.0 mi WSW 13.8 mph 26.5 mph N/A   Partly Cloudy
10:15 PM 44.6 °F 37.4 °F 26.6 °F 49% 29.76 in 10.0 mi WSW 16.1 mph 26.5 mph N/A   Partly Cloudy
10:35 PM 44.6 °F 35.9 °F 26.6 °F 49% 29.76 in 10.0 mi WSW 23.0 mph 32.2 mph N/A   Scattered Clouds
10:55 PM 44.6 °F 37.8 °F 26.6 °F 49% 29.77 in 10.0 mi WSW 15.0 mph 24.2 mph N/A   Overcast
11:15 PM 42.8 °F 34.5 °F 28.4 °F 57% 29.77 in 10.0 mi SW 18.4 mph 25.3 mph N/A   Mostly Cloudy
11:35 PM 44.6 °F 37.4 °F 26.6 °F 49% 29.77 in 10.0 mi WSW 16.1 mph 26.5 mph N/A   Overcast
11:55 PM 46.4 °F 39.2 °F 26.6 °F 46% 29.78 in 10.0 mi WSW 18.4 mph 32.2 mph N/A   Mostly Cloudy